Regional Weather Roundup
Issued by NWS

Home | Current Version | Previous Version | Graphics & Text | Print | Product List | Glossary Off
Versions: 1 2 3 4 5 6 7 8 9 10 11 12 13 14 15 16 17 18 19 20 21 22 23 24 25 26 27 28 29 30 31 32 33 34 35 36 37 38 39 40 41 42 43 44 45 46 47 48 49 50

000
ASUS43 KMKX 191210
RWRWI

WISCONSIN REGIONAL WEATHER ROUNDUP
NATIONAL WEATHER SERVICE MILWAUKEE/SULLIVAN WI
600 AM CST THU JAN 19 2017

NOTE: "FAIR" INDICATES FEW OR NO CLOUDS BELOW 12,000 FEET WITH NO
SIGNIFICANT WEATHER AND/OR OBSTRUCTIONS TO VISIBILITY.

WIZ001-002-006>008-014>016-023>028-191300-
NORTHWEST WISCONSIN

CITY           SKY/WX    TMP DP  RH WIND       PRES   REMARKS
SUPERIOR ARPT  CLOUDY    35  33  93 SW10      29.80R WCI  27
6HR MIN TEMP:  25; 6HR MAX TEMP:  35;

ASHLAND        CLOUDY    32  31  96 S5        29.83S FOG     WCI  27
6HR MIN TEMP:  22; 6HR MAX TEMP:  32;

HAYWARD        CLOUDY    33  30  88 S9        29.84R FOG     WCI  25
6HR MIN TEMP:  28; 6HR MAX TEMP:  33;

SIREN          CLOUDY    30  30  99 SE6       29.83R FOG     WCI  24
6HR MIN TEMP:  29; 6HR MAX TEMP:  32;

CUMBERLAND     CLOUDY    30  28  93 S5        29.84S FOG     WCI  25
RICE LAKE      FOG       30  30  99 SE6       29.87R VSB<1/4 WCI  24
6HR MIN TEMP:  27; 6HR MAX TEMP:  30;

CHETEK         FOG       30  30 100 SE8       29.86S VSB 1/2 WCI  22
LADYSMITH      FOG       33  32  97 S6        29.88S VSB 3/4 WCI  27
6HR MIN TEMP:  29; 6HR MAX TEMP:  33;

EAU CLAIRE     CLOUDY    28  28 100 CALM      29.87S FOG
6HR MIN TEMP:  25; 6HR MAX TEMP:  31;

MENOMONIE      FOG       24  23  97 MISG      29.87R VSB 1/4
6HR MIN TEMP:  22; 6HR MAX TEMP:  27;

NEW RICHMOND   CLEAR     31  31  99 SE3       29.83S
6HR MIN TEMP:  30; 6HR MAX TEMP:  32;

OSCEOLA        CLEAR     32  32 100 S6        29.86R WCI  26
6HR MIN TEMP:  31; 6HR MAX TEMP:  33;

$$

WIZ003>005-009-010-017-018-191300-
NORTH CENTRAL WISCONSIN

CITY           SKY/WX    TMP DP  RH WIND       PRES   REMARKS
MANITOWISH WTR FOG       31  31 100 S9        29.85R VSB 1/2 WCI  23
ARBOR VITAE    FOG       32  31  96 S6        29.86R VSB 3/4 WCI  26
6HR MIN TEMP:  27; 6HR MAX TEMP:  32;

WOODRUFF       FOG       32  31  96 S6        29.86R VSB 3/4 WCI  26
6HR MIN TEMP:  27; 6HR MAX TEMP:  32;

RHINELANDER    FOG       31  31 100 SW7       29.88R VSB 1/2 WCI  24
6HR MIN TEMP:  29; 6HR MAX TEMP:  31;

EAGLE RIVER    FOG       31  31 100 SW5       29.86S VSB 1/2 WCI  26
6HR MIN TEMP:  27; 6HR MAX TEMP:  32;

LAND O LAKES   FOG       32  32 100 SW6       29.87R VSB 3/4 WCI  26
6HR MIN TEMP:  23; 6HR MAX TEMP:  32;

PHILLIPS       CLOUDY    31  31 100 S5        29.86R FOG     WCI  26
6HR MIN TEMP:  27; 6HR MAX TEMP:  31;

TOMAHAWK       FOG       31  30  96 CALM      29.89R VSB 1
6HR MIN TEMP:  25; 6HR MAX TEMP:  31;

MEDFORD        FOG       31  31  99 S7        29.87S VSB 1/4 WCI  25
6HR MIN TEMP:  27; 6HR MAX TEMP:  31;

MERRILL        FOG       31  31 100 S3          N/A  VSB 3/4
6HR MIN TEMP:  28; 6HR MAX TEMP:  31;

$$

WIZ029-030-035-036-043>047-191300-
CENTRAL WISCONSIN

CITY           SKY/WX    TMP DP  RH WIND       PRES   REMARKS
WAUSAU         FOG       31  31 100 CALM      29.88F VSB 1/4
6HR MIN TEMP:  28; 6HR MAX TEMP:  31;

MOSINEE        FOG       30  30 100 S3        29.91S VSB 1/4
MARSHFIELD     FOG       32  31  96 S7        29.89S VSB 1/4 WCI  26
6HR MIN TEMP:  27; 6HR MAX TEMP:  32;

STEVENS POINT  FOG       31  31 100 S5        29.93R VSB 1/2 WCI  26
6HR MIN TEMP:  25; 6HR MAX TEMP:  31;

WAUPACA        CLOUDY    35  33  93 CALM      29.94S FOG
6HR MIN TEMP:  31; 6HR MAX TEMP:  35;

WAUTOMA        CLOUDY    34  33  96 S8        29.96R FOG     WCI  27
6HR MIN TEMP:  31; 6HR MAX TEMP:  34;

WISC RAPIDS    FOG       33  33 100 S6        29.93S VSB 1/2 WCI  28
6HR MIN TEMP:  29; 6HR MAX TEMP:  33;

CAMP DOUGLAS   CLOUDY    34  32  93 CALM      29.92S
$$

WIZ011>013-019>022-031-037>040-048>050-191300-
NORTHEAST WISCONSIN

CITY           SKY/WX    TMP DP  RH WIND       PRES   REMARKS
ANTIGO         FOG       29  29 100 SW5       29.90S VSB 1/2 WCI  24
6HR MIN TEMP:  26; 6HR MAX TEMP:  29;

SHAWANO        CLOUDY    33  32  94 W3        29.94S FOG
6HR MIN TEMP:  31; 6HR MAX TEMP:  33;

OCONTO         CLOUDY    32  31  96 W5        29.95R WCI  27
6HR MIN TEMP:  29; 6HR MAX TEMP:  32;

STURGEON BAY   CLOUDY    32  31  96 W8        29.96R FOG     WCI  25
6HR MIN TEMP:  30; 6HR MAX TEMP:  32;

GREEN BAY      CLOUDY    34  34 100 SW8       29.95F FOG     WCI  27
6HR MIN TEMP:  33; 6HR MAX TEMP:  34;

MANITOWOC      CLOUDY    34  32  92 SW5       29.98R FOG     WCI  30
6HR MIN TEMP:  28; 6HR MAX TEMP:  34;

APPLETON       FOG       32  32 100 SW12      29.94R VSB 1/2 WCI  23
CLINTONVILLE   CLOUDY    32  32 100 CALM      29.93F FOG
OSHKOSH        CLOUDY    33  32  96 S6        29.95S FOG     WCI  28
6HR MIN TEMP:  32; 6HR MAX TEMP:  33;

$$

WIZ032>034-041-042-053>061-191300-
SOUTHWEST WISCONSIN

CITY           SKY/WX    TMP DP  RH WIND       PRES   REMARKS
LA CROSSE      CLOUDY    36  33  89 SE8       29.92S WCI  30
6HR MIN TEMP:  35; 6HR MAX TEMP:  37;

SPARTA           N/A     26  26 100 CALM      29.93S FOG
6HR MIN TEMP:  26; 6HR MAX TEMP:  34;

VIROQUA        CLEAR     32  32 100 SE5       29.90F WCI  27
6HR MIN TEMP:  32; 6HR MAX TEMP:  34;

BOSCOBEL       CLOUDY    33  31  92 SW3       29.96S FOG
6HR MIN TEMP:  30; 6HR MAX TEMP:  37;

PRAIRIE DU CHI CLOUDY    33  32  96 CALM      29.95S FOG
6HR MIN TEMP:  33; 6HR MAX TEMP:  34;

PLATTEVILLE    CLOUDY    32  32 100 S5        29.95S VSB<1/4 WCI  27
6HR MIN TEMP:  32; 6HR MAX TEMP:  33;

$$

WIZ056-057-062-063-064-067-068-191300-
SOUTH CENTRAL WISCONSIN

CITY           SKY/WX    TMP DP  RH WIND       PRES   REMARKS
REEDSBURG      CLOUDY    32  32 100 S5        29.94F FOG     WCI  28
BARABOO/DELLS    N/A     31  31  98 CALM      29.93F FOG
6HR MIN TEMP:  31; 6HR MAX TEMP:  34;

LONE ROCK      CLOUDY    34  32  92 SW5       29.95F FOG     WCI  30
6HR MIN TEMP:  33; 6HR MAX TEMP:  36;

MINERAL POINT  FOG       34  34 100 S5        29.94S VSB<1/4 WCI  30
MADISON        CLOUDY    33  33 100 S3        29.96F FOG
6HR MIN TEMP:  33; 6HR MAX TEMP:  33;

MIDDLETON      CLOUDY    34  34 100 SW5       29.95F VSB 1   WCI  30
6HR MIN TEMP:  34; 6HR MAX TEMP:  35;

WATERTOWN      CLOUDY    32  32 100 SW5       29.96F FOG     WCI  28
6HR MIN TEMP:  32; 6HR MAX TEMP:  34;

MONROE         FOG       32  32 100 S3        29.95S VSB 1/4
JANESVILLE       N/A     32  32 100 CALM      29.97S FOG
$$

WIZ051-052-058>065-066-070>072-191300-
SOUTHEAST WISCONSIN

CITY           SKY/WX    TMP DP  RH WIND       PRES   REMARKS
MILWAUKEE      FOG       34  32  92 SW7       29.98S VSB 1   WCI  28
6HR MIN TEMP:  34; 6HR MAX TEMP:  35; 6HR PCP: TRACE;

WAUKESHA       NOT AVBL
MILWAUKEE/TIMM MOCLDY    32  32 100 SW6       29.99R FOG     WCI  26
RACINE         CLOUDY    33  32  96 SW6       30.01S FOG     WCI  28
6HR MIN TEMP:  33; 6HR MAX TEMP:  34;

KENOSHA        FOG       33  32  96 W3        29.98F VSB 3/4
6HR MIN TEMP:  33; 6HR MAX TEMP:  34;

FOND DU LAC    CLOUDY    33  31  92 SW8       29.96S FOG     WCI  26
6HR MIN TEMP:  33; 6HR MAX TEMP:  34;

SHEBOYGAN      CLOUDY    33  31  92 SW5       29.97R FOG     WCI  29
6HR MIN TEMP:  32; 6HR MAX TEMP:  34;

WEST BEND      MOCLDY    32  32 100 W5        29.96S FOG     WCI  27
JUNEAU         FOG       32  32  99 SW7       29.96F VSB 3/4 WCI  26
6HR MIN TEMP:  32; 6HR MAX TEMP:  32;

$$

LSZ147-162-191300-
LAKE SUPERIOR

STATION/POSITION TIME  TEMP    WIND        PRES    WAVE
                       AIR SEA DIR/SP/G            HT/PER
                 (UTC) (F)     (DEG/KT/KT) (MB)    (FT/S)
DEVILS ISLAND    1100   33     160/  7/  9 1010.5R
PORT WING        1140   24     120/  2/  3 1009.8R
SAXON HARBOR     1130   28     200/  3/  4 1010.2R
$$

LMZ867-665-643>646-191300-
LAKE MICHIGAN

STATION/POSITION TIME  TEMP    WIND        PRES    WAVE
                       AIR SEA DIR/SP/G            HT/PER
                 (UTC) (F)     (DEG/KT/KT) (MB)    (FT/S)
NORTHPORT PIER   1200   31     230/  8/ 17 1013.5
SISTER BAY       1120   31     270/ 15/ 18   N/A
KEWAUNEE LAKESHO 1142   33     250/  5/ 11 1014.2R
SHEBOYGAN LAKESH 1200   34     240/  6/  7 1015.4R
PORT WASHINGTON  1140   33     260/  1/  3 1015.9S
MILWAUKEE LAKESH 1150   34     220/  8/  9   N/A
KENOSHA   LAKESH 1100   3



USA.gov is the U.S. government's official web portal to all federal, state and local government web resources and services.